Location: Oregon Trail
(41.1872°N, 102.0741°W)
Time: 03:07:36
(UTC+00:00)

STARLINK-44 - Pass Details

Date: 19 November 2019
Orbit: 529 x 531 km, 53.0° (Epoch: 13 December)

Event Time Altitude Azimuth Distance (km) Brightness Sun altitude
Exits shadow 10:45:20 18° 72° (ENE) 1,348 6.2 -32.8°
Drops below altitude 10° 10:46:34 10° 64° (ENE) 1,795 6.9 -32.6°
Enters shadow 11:49:37 -59° 236° (SW) 11,639 10.3 -20.8°
